Location: Haliburton Scout Reserve
(45.0900°N, 78.3200°W)
Time: 04:35:41
(UTC-04:00)

PCSat - Pass Details

Date: 02 June 2022
Orbit: 784 x 795 km, 67.1° (Epoch: 24 June)

Event Time Altitude Azimuth Distance (km) Brightness Sun altitude
Rises 01:34:52 0° 325° (NW) 3,305 13.5 -22.5°
Reaches altitude 10° 01:37:18 10° 322° (NW) 2,371 12.6 -22.5°
Maximum altitude 01:42:40 63° 243° (WSW) 887 9.6 -22.3°
Enters shadow 01:43:39 53° 196° (SSW) 973 9.6 -22.3°
